HK6LRQ-21 Weather Reports


Display with metric or nautical units.
time (UTC)temp
F
wind
direction
speed
MPH
gust
MPH
rain 1hr
in
rain 24hr
in
rain mn
in
humidity
%
barometer
mb
20260504175655 63 257 3.0 3.0 0.00 0.00 0.00 85 1013.0
20260504173653 65 257 3.0 3.0 0.00 0.00 0.00 85 1014.0
20260504171652 67 257 3.0 3.0 0.00 0.00 0.00 85 1015.0
20260504081627 51 100 4.0 3.0 0.00 0.00 0.00 92 1016.0
20260504045617 53 107 3.0 1.0 0.01 0.00 0.00 92 1018.0
20260504043616 55 107 3.0 2.0 0.02 0.00 0.00 92 1018.0
20260504041615 54 96 3.0 1.0 0.01 0.00 0.00 92 1018.0
20260504035614 56 96 3.0 2.0 0.00 0.00 0.00 92 1018.0
20260504033613 54 100 4.0 3.0 0.00 0.00 0.00 92 1018.0
20260504031612 55 100 4.0 3.0 0.00 0.00 0.00 92 1017.0
20260504025611 57 100 4.0 3.0 0.00 0.00 0.00 92 1017.0
20260504023610 55 99 3.0 1.0 0.00 0.00 0.00 92 1017.0
20260504021609 56 99 3.0 1.0 0.00 0.00 0.00 92 1016.0
20260504015609 58 99 3.0 2.0 0.00 0.00 0.00 92 1017.0
20260504013608 56 97 4.0 3.0 0.00 0.00 0.00 92 1016.0
20260504011607 57 97 4.0 3.0 0.00 0.00 0.00 92 1015.0
20260504005606 58 97 4.0 3.0 0.00 0.00 0.00 92 1016.0
20260504003605 56 114 3.0 3.0 0.00 0.00 0.00 92 1015.0
20260503235348 57 114 3.0 3.0 0.00 0.00 0.00 92 1014.0
20260503233347 58 114 3.0 3.0 0.00 0.00 0.00 92 1014.0
20260503231346 60 114 3.0 3.0 0.00 0.00 0.00 92 1012.0
20260503225345 58 155 1.0 1.0 0.00 0.00 0.00 92 1013.0
20260503223344 59 155 1.0 1.0 0.00 0.00 0.00 92 1012.0
20260503221343 61 155 1.0 2.0 0.00 0.00 0.00 92 1011.0
20260503215342 60 155 1.0 1.0 0.00 0.00 0.00 92 1012.0
20260503213342 62 155 1.0 2.0 0.00 0.00 0.00 92 1012.0
20260503211341 62 195 1.0 2.0 0.00 0.00 0.00 92 1011.0
20260503205340 62 222 1.0 3.0 0.00 0.00 0.00 92 1011.0
20260503201336 64 222 1.0 3.0 0.00 0.00 0.00 92 1011.0
20260503195335 63 222 1.0 3.0 0.00 0.00 0.00 92 1012.0
20260503193334 64 222 1.0 3.0 0.00 0.00 0.00 92 1012.0
20260503191333 65 241 2.0 3.0 0.00 0.00 0.00 92 1012.0
20260503185332 64 241 2.0 3.0 0.00 0.00 0.00 92 1012.0
20260503183331 64 241 2.0 3.0 0.00 0.00 0.00 92 1013.0
20260503181330 65 241 2.0 3.0 0.00 0.00 0.00 92 1013.0